WA5KWK Weather Reports


Display with metric or nautical units.
time (UTC)temp
F
wind
direction
speed
MPH
gust
MPH
rain 1hr
in
rain 24hr
in
rain mn
in
humidity
%
barometer
mb
20260510102005 65 36 0.0 0.0 0.00 0.00 0.00 76 1014.4
20260510101004 65 36 0.0 0.0 0.00 0.00 0.00 76 1014.4
20260510100505 65 36 0.0 0.0 0.00 0.00 0.00 76 1014.5
20260510100004 65 36 0.0 0.0 0.00 0.00 0.00 76 1014.3
20260510095504 65 36 0.0 0.0 0.00 0.00 0.00 76 1014.3
20260510095004 65 36 0.0 0.0 0.00 0.00 0.00 76 1014.2
20260510094504 65 36 0.0 1.0 0.00 0.00 0.00 76 1014.2
20260510094004 66 36 0.0 0.0 0.00 0.00 0.00 75 1014.2
20260510093505 66 36 0.0 0.0 0.00 0.00 0.00 75 1014.2
20260510091504 66 36 0.0 0.0 0.00 0.00 0.00 75 1014.2
20260510091004 66 36 0.0 0.0 0.00 0.00 0.00 75 1014.2
20260510090504 66 36 0.0 0.0 0.00 0.00 0.00 75 1014.2
20260510085504 66 36 0.0 0.0 0.00 0.00 0.00 75 1014.2
20260510085005 66 36 0.0 0.0 0.00 0.00 0.00 75 1014.1
20260510084505 66 36 0.0 1.0 0.00 0.00 0.00 76 1014.3
20260510084004 65 36 1.0 2.0 0.00 0.00 0.00 76 1014.3
20260510083504 65 36 0.0 2.0 0.00 0.00 0.00 76 1014.4
20260510083010 66 36 1.0 2.0 0.00 0.00 0.00 76 1014.4
20260510082514 65 36 0.0 0.0 0.00 0.00 0.00 76 1014.4
20260510081504 65 36 0.0 0.0 0.00 0.00 0.00 77 1014.4
20260510081005 65 36 0.0 0.0 0.00 0.00 0.00 77 1014.2
20260510080504 65 36 1.0 2.0 0.00 0.00 0.00 77 1014.3
20260510080004 65 36 0.0 0.0 0.00 0.00 0.00 77 1014.3
20260510075504 65 36 0.0 2.0 0.00 0.00 0.00 77 1014.2
20260510075004 65 36 2.0 2.0 0.00 0.00 0.00 77 1014.1
20260510074504 65 36 2.0 3.0 0.00 0.00 0.00 77 1014.2
20260510074005 65 36 3.0 3.0 0.00 0.00 0.00 78 1014.2
20260510073505 64 7 2.0 3.0 0.00 0.00 0.00 79 1014.4
20260510073004 63 292 2.0 3.0 0.00 0.00 0.00 80 1014.4
20260510072504 64 292 1.0 3.0 0.00 0.00 0.00 80 1014.3
20260510072004 64 292 1.0 3.0 0.00 0.00 0.00 79 1014.3
20260510071005 64 292 0.0 0.0 0.00 0.00 0.00 79 1014.4
20260510070504 64 292 0.0 0.0 0.00 0.00 0.00 79 1014.3
20260510070004 64 292 0.0 0.0 0.00 0.00 0.00 79 1014.5
20260510065504 64 292 0.0 0.0 0.00 0.00 0.00 79 1014.5
20260510065004 63 292 0.0 0.0 0.00 0.00 0.00 80 1014.5
20260510064504 64 292 0.0 0.0 0.00 0.00 0.00 80 1014.5
20260510064004 64 292 0.0 0.0 0.00 0.00 0.00 80 1014.5
20260510063504 64 292 0.0 0.0 0.00 0.00 0.00 80 1014.5
20260510063004 64 292 0.0 0.0 0.00 0.00 0.00 79 1014.5
20260510062504 64 292 0.0 0.0 0.00 0.00 0.00 79 1014.6
20260510062005 64 292 0.0 0.0 0.00 0.00 0.00 79 1014.6
20260510061505 64 292 0.0 0.0 0.00 0.00 0.00 78 1014.7
20260510061004 64 292 0.0 0.0 0.00 0.00 0.00 78 1014.6
20260510060504 65 292 0.0 0.0 0.00 0.00 0.00 77 1014.7
20260510060004 65 292 0.0 1.0 0.00 0.00 0.00 77 1014.3
20260510055504 65 292 1.0 2.0 0.00 0.00 0.00 77 1014.4
20260510055005 65 292 1.0 3.0 0.00 0.00 0.00 76 1014.5
20260510054504 65 292 1.0 2.0 0.00 0.00 0.00 76 1014.5
20260510054004 65 292 0.0 0.0 0.00 0.00 0.00 76 1014.5
20260510053504 65 292 0.0 0.0 0.00 0.00 0.00 77 1014.4
20260510053006 65 292 0.0 0.0 0.00 0.00 0.00 77 1014.4
20260510052503 65 292 0.0 0.0 0.00 0.00 0.00 77 1014.4
20260510051504 65 292 0.0 0.0 0.00 0.00 0.00 77 1014.4
20260510050504 65 292 0.0 0.0 0.00 0.00 0.00 76 1014.3
20260510050004 65 292 0.0 0.0 0.00 0.00 0.00 76 1014.5
20260510045505 65 292 0.0 0.0 0.00 0.00 0.00 76 1014.4
20260510045004 66 292 0.0 0.0 0.00 0.00 0.00 76 1014.4
20260510044504 66 292 0.0 0.0 0.00 0.00 0.00 75 1014.5
20260510043004 66 292 0.0 0.0 0.00 0.00 0.00 74 1014.4
20260510042504 66 292 0.0 0.0 0.00 0.00 0.00 74 1014.5
20260510042004 66 292 0.0 0.0 0.00 0.00 0.00 74 1014.6
20260510041004 67 292 0.0 1.0 0.00 0.00 0.00 72 1014.5
20260510040504 68 292 0.0 1.0 0.00 0.00 0.00 71 1014.5
20260510040004 68 292 0.0 1.0 0.00 0.00 0.00 70 1014.6
20260510035004 69 292 0.0 3.0 0.00 0.00 0.00 69 1014.6
20260510034504 69 292 1.0 2.0 0.00 0.00 0.00 69 1014.5
20260510033504 69 292 0.0 0.0 0.00 0.00 0.00 69 1014.3
20260510033005 69 292 0.0 0.0 0.00 0.00 0.00 69 1014.4
20260510032504 69 292 0.0 1.0 0.00 0.00 0.00 68 1014.4
20260510032004 70 292 0.0 1.0 0.00 0.00 0.00 68 1014.3
20260510031504 70 292 1.0 1.0 0.00 0.00 0.00 67 1014.2
20260510030504 71 292 0.0 1.0 0.00 0.00 0.00 66 1014.2
20260510030004 71 292 0.0 2.0 0.00 0.00 0.00 66 1014.2
20260510025505 71 292 0.0 2.0 0.00 0.00 0.00 65 1014.2
20260510025004 71 292 1.0 2.0 0.00 0.00 0.00 65 1014.3
20260510024504 71 292 1.0 3.0 0.00 0.00 0.00 65 1014.3
20260510024004 72 292 1.0 3.0 0.00 0.00 0.00 64 1014.2
20260510023504 72 289 1.0 3.0 0.00 0.00 0.00 64 1014.0
20260510023004 73 314 1.0 3.0 0.00 0.00 0.00 63 1014.2
20260510022504 73 250 1.0 3.0 0.00 0.00 0.00 63 1014.1
20260510021504 74 286 1.0 3.0 0.00 0.00 0.00 62 1014.0
20260510021004 74 280 1.0 3.0 0.00 0.00 0.00 61 1014.0
20260510020504 74 320 0.0 3.0 0.00 0.00 0.00 61 1014.1
20260510020005 75 272 2.0 6.0 0.00 0.00 0.00 60 1014.1
20260510015504 75 278 2.0 7.0 0.00 0.00 0.00 59 1014.0
20260510015004 75 239 3.0 8.0 0.00 0.00 0.00 59 1014.0
20260510014504 75 270 2.0 8.0 0.00 0.00 0.00 58 1014.1
20260510014004 76 267 3.0 7.0 0.00 0.00 0.00 58 1014.0
20260510012504 76 269 3.0 6.0 0.00 0.00 0.00 58 1014.2
20260510012005 77 255 2.0 6.0 0.00 0.00 0.00 59 1014.1
20260510011505 77 235 1.0 6.0 0.00 0.00 0.00 58 1014.1
20260510011005 77 254 1.0 7.0 0.00 0.00 0.00 57 1014.1
20260510010505 77 251 2.0 3.0 0.00 0.00 0.00 56 1014.1
20260510005505 77 309 2.0 7.0 0.00 0.00 0.00 57 1014.1
20260510005004 77 253 3.0 7.0 0.00 0.00 0.00 57 1014.3
20260510004505 77 269 3.0 7.0 0.00 0.00 0.00 58 1014.2
20260510004005 77 204 3.0 6.0 0.00 0.00 0.00 56 1014.3
20260510003005 77 278 2.0 6.0 0.00 0.00 0.00 55 1014.3
20260510002504 77 285 3.0 7.0 0.00 0.00 0.00 55 1014.4
20260510001505 77 268 3.0 9.0 0.00 0.00 0.00 53 1014.3
20260510001005 77 189 3.0 6.0 0.00 0.00 0.00 55 1014.3
20260510000505 78 245 2.0 6.0 0.00 0.00 0.00 52 1014.3
20260509235504 79 293 2.0 8.0 0.00 0.00 0.00 51 1014.4
20260509234505 79 297 3.0 7.0 0.00 0.00 0.00 51 1014.3
20260509234005 78 269 2.0 8.0 0.00 0.00 0.00 49 1014.3
20260509233505 78 280 2.0 6.0 0.00 0.00 0.00 49 1014.3
20260509233005 78 247 1.0 10.0 0.00 0.00 0.00 52 1014.3
20260509232505 78 266 3.0 8.0 0.00 0.00 0.00 51 1014.2
20260509232006 78 189 3.0 9.0 0.00 0.00 0.00 50 1014.3
20260509231505 78 278 3.0 8.0 0.00 0.00 0.00 50 1014.3
20260509230505 78 225 3.0 8.0 0.00 0.00 0.00 49 1014.3
20260509230005 79 281 2.0 7.0 0.00 0.00 0.00 49 1014.3
20260509225505 79 241 3.0 6.0 0.00 0.00 0.00 47 1014.3
20260509225005 78 281 3.0 12.0 0.00 0.00 0.00 45 1014.3
20260509224505 78 233 3.0 7.0 0.00 0.00 0.00 52 1014.3
20260509224005 78 350 3.0 9.0 0.00 0.00 0.00 50 1014.5
20260509223505 78 232 5.0 10.0 0.00 0.00 0.00 49 1014.3
20260509223005 78 165 5.0 12.0 0.00 0.00 0.00 52 1014.5
20260509221005 77 202 5.0 9.0 0.00 0.00 0.00 55 1014.6
20260509220505 78 195 5.0 12.0 0.00 0.00 0.00 53 1014.6
20260509220005 78 185 5.0 12.0 0.00 0.00 0.00 53 1014.6
20260509215504 78 213 3.0 8.0 0.00 0.00 0.00 53 1014.6
20260509215005 78 199 5.0 9.0 0.00 0.00 0.00 52 1014.7
20260509214505 77 211 4.0 10.0 0.00 0.00 0.00 55 1014.6
20260509214005 77 221 4.0 9.0 0.00 0.00 0.00 56 1014.7
20260509213505 77 236 7.0 12.0 0.00 0.00 0.00 54 1014.7
20260509213005 77 220 5.0 12.0 0.00 0.00 0.00 52 1014.7
20260509212504 77 208 5.0 10.0 0.00 0.00 0.00 53 1014.7
20260509211505 77 207 5.0 10.0 0.00 0.00 0.00 54 1015.0
20260509211005 78 196 5.0 10.0 0.00 0.00 0.00 55 1015.1
20260509210505 78 190 6.0 9.0 0.00 0.00 0.00 56 1015.1
20260509210004 77 260 5.0 9.0 0.00 0.00 0.00 56 1015.1
20260509205505 77 200 3.0 8.0 0.00 0.00 0.00 58 1015.2
20260509205005 77 210 3.0 9.0 0.00 0.00 0.00 57 1015.2
20260509204505 77 227 5.0 8.0 0.00 0.00 0.00 58 1015.1
20260509204005 77 210 3.0 8.0 0.00 0.00 0.00 55 1015.3
20260509203505 77 228 4.0 8.0 0.00 0.00 0.00 55 1015.3
20260509203005 76 200 3.0 10.0 0.00 0.00 0.00 56 1015.2
20260509202005 77 183 5.0 12.0 0.00 0.00 0.00 56 1015.2
20260509201505 76 202 5.0 9.0 0.00 0.00 0.00 53 1015.3
20260509201004 76 173 5.0 6.0 0.00 0.00 0.00 55 1015.3
20260509200504 77 220 6.0 9.0 0.00 0.00 0.00 52 1015.4
20260509195004 76 186 5.0 10.0 0.00 0.00 0.00 53 1015.2
20260509194505 76 218 5.0 7.0 0.00 0.00 0.00 55 1015.5
20260509194004 76 221 6.0 10.0 0.00 0.00 0.00 54 1015.5
20260509193505 76 240 3.0 7.0 0.00 0.00 0.00 56 1015.5
20260509193004 76 188 3.0 8.0 0.00 0.00 0.00 55 1015.5
20260509192505 76 227 5.0 7.0 0.00 0.00 0.00 55 1015.6
20260509192005 75 176 3.0 7.0 0.00 0.00 0.00 56 1015.6
20260509190505 75 233 5.0 8.0 0.00 0.00 0.00 56 1015.9
20260509190006 75 225 5.0 8.0 0.00 0.00 0.00 58 1015.7
20260509185504 75 204 4.0 9.0 0.00 0.00 0.00 57 1015.8
20260509185005 75 205 3.0 6.0 0.00 0.00 0.00 56 1015.8
20260509184005 75 198 3.0 6.0 0.00 0.00 0.00 58 1015.9
20260509183005 75 213 5.0 7.0 0.00 0.00 0.00 55 1016.0
20260509182505 75 251 3.0 7.0 0.00 0.00 0.00 58 1015.9
20260509182004 75 229 3.0 5.0 0.00 0.00 0.00 58 1015.9
20260509181505 74 229 1.0 6.0 0.00 0.00 0.00 54 1016.0
20260509181005 74 231 2.0 5.0 0.00 0.00 0.00 54 1016.0
20260509180505 74 215 3.0 8.0 0.00 0.00 0.00 55 1016.0
20260509180005 74 222 3.0 6.0 0.00 0.00 0.00 54 1015.9
20260509175504 74 252 2.0 3.0 0.00 0.00 0.00 56 1015.9
20260509175004 74 206 3.0 6.0 0.00 0.00 0.00 56 1015.9
20260509174504 74 244 2.0 6.0 0.00 0.00 0.00 55 1015.8
20260509174004 74 205 0.0 3.0 0.00 0.00 0.00 56 1015.9
20260509173004 74 209 3.0 5.0 0.00 0.00 0.00 60 1015.8
20260509172505 74 190 3.0 6.0 0.00 0.00 0.00 54 1015.8
20260509172005 74 225 1.0 7.0 0.00 0.00 0.00 56 1015.8
20260509171504 74 230 3.0 7.0 0.00 0.00 0.00 54 1015.6
20260509171004 73 183 3.0 6.0 0.00 0.00 0.00 53 1015.6
20260509165004 72 213 3.0 3.0 0.00 0.00 0.00 54 1015.5
20260509164504 72 213 3.0 6.0 0.00 0.00 0.00 52 1015.4
20260509164005 72 217 2.0 5.0 0.00 0.00 0.00 54 1015.4
20260509163005 71 256 2.0 3.0 0.00 0.00 0.00 49 1015.4
20260509162504 71 256 2.0 3.0 0.00 0.00 0.00 53 1015.4
20260509162004 71 256 1.0 3.0 0.00 0.00 0.00 50 1015.6
20260509161504 71 258 0.0 2.0 0.00 0.00 0.00 55 1015.6
20260509161005 71 258 0.0 2.0 0.00 0.00 0.00 54 1015.5
20260509160505 71 258 0.0 2.0 0.00 0.00 0.00 58 1015.6
20260509160004 71 258 0.0 3.0 0.00 0.00 0.00 55 1015.6
20260509155005 71 258 0.0 0.0 0.00 0.00 0.00 54 1015.6
20260509154505 70 258 0.0 0.0 0.00 0.00 0.00 55 1015.5
20260509154004 70 258 0.0 0.0 0.00 0.00 0.00 56 1015.7
20260509153504 69 258 0.0 0.0 0.00 0.00 0.00 55 1015.7
20260509152504 68 258 0.0 0.0 0.00 0.00 0.00 56 1015.7
20260509152004 68 258 0.0 0.0 0.00 0.00 0.00 59 1015.5
20260509151505 68 258 0.0 0.0 0.00 0.00 0.00 58 1015.5
20260509151005 67 258 0.0 0.0 0.00 0.00 0.00 59 1015.5
20260509150504 67 258 0.0 0.0 0.00 0.00 0.00 66 1015.6
20260509150005 66 258 0.0 0.0 0.00 0.00 0.00 66 1015.5
20260509144504 64 258 0.0 0.0 0.00 0.00 0.00 66 1015.4
20260509143504 63 258 0.0 0.0 0.00 0.00 0.00 69 1015.4
20260509143004 63 258 0.0 2.0 0.00 0.00 0.00 70 1015.4
20260509142505 62 258 1.0 2.0 0.00 0.00 0.00 71 1015.4
20260509142004 62 258 0.0 2.0 0.00 0.00 0.00 70 1015.2
20260509141505 62 258 1.0 2.0 0.00 0.00 0.00 69 1015.5
20260509140005 62 258 0.0 2.0 0.00 0.00 0.00 68 1015.2
20260509135504 62 258 1.0 2.0 0.00 0.00 0.00 69 1015.2
20260509135005 62 258 0.0 0.0 0.00 0.00 0.00 69 1015.0
20260509134505 62 258 0.0 0.0 0.00 0.00 0.00 69 1015.2
20260509134005 62 258 0.0 0.0 0.00 0.00 0.00 67 1015.0
20260509133504 62 263 0.0 0.0 0.00 0.00 0.00 66 1015.0
20260509133005 62 263 0.0 0.0 0.00 0.00 0.00 66 1014.9
20260509132504 62 263 0.0 0.0 0.00 0.00 0.00 66 1015.0
20260509132005 62 263 0.0 0.0 0.00 0.00 0.00 66 1015.0
20260509131509 62 263 0.0 0.0 0.00 0.00 0.00 66 1015.0
20260509131005 61 263 0.0 0.0 0.00 0.00 0.00 67 1014.9
20260509130005 61 263 0.0 0.0 0.00 0.00 0.00 67 1014.9
20260509125504 62 263 0.0 0.0 0.00 0.00 0.00 67 1014.9
20260509125004 62 263 0.0 0.0 0.00 0.00 0.00 66 1014.8
20260509124505 62 263 0.0 0.0 0.00 0.00 0.00 66 1014.8
20260509124005 62 263 0.0 0.0 0.00 0.00 0.00 67 1014.8
20260509123505 62 263 0.0 0.0 0.00 0.00 0.00 66 1014.8
20260509122505 62 263 0.0 0.0 0.00 0.00 0.00 67 1014.8
20260509121504 61 263 0.0 0.0 0.00 0.00 0.00 68 1014.8
20260509121004 61 263 0.0 0.0 0.00 0.00 0.00 68 1014.9
20260509120504 62 263 0.0 0.0 0.00 0.00 0.00 67 1014.9
20260509120004 62 263 0.0 0.0 0.00 0.00 0.00 67 1014.8
20260509115505 62 263 0.0 0.0 0.00 0.00 0.00 68 1014.8
20260509115004 61 263 0.0 0.0 0.00 0.00 0.00 68 1014.9
20260509114504 61 263 0.0 1.0 0.00 0.00 0.00 69 1014.9
20260509113004 61 263 1.0 2.0 0.00 0.00 0.00 70 1014.9
20260509112005 61 263 1.0 2.0 0.00 0.00 0.00 71 1014.9
20260509111504 60 263 1.0 2.0 0.00 0.00 0.00 71 1014.8
20260509110504 60 263 1.0 2.0 0.00 0.00 0.00 71 1015.1
20260509105504 60 263 1.0 2.0 0.00 0.00 0.00 72 1015.0
20260509104504 61 263 1.0 2.0 0.00 0.00 0.00 72 1015.1
20260509104005 61 263 0.0 0.0 0.00 0.00 0.00 71 1015.1
20260509103504 61 263 0.0 0.0 0.00 0.00 0.00 71 1015.0
20260509103006 61 263 0.0 1.0 0.00 0.00 0.00 71 1015.1
20260509102505 60 263 1.0 2.0 0.00 0.00 0.00 72 1015.1